Wetbulb
46.51 47.66 47.87 48.02 48.21 48.30 48.78 48.97 49.17 50.97 51.08 51.79 53.18 53.79 55.06 55.05 54.94 54.67 54.43 53.49 53.89 54.18
46.38 46.71 47.12 47.57 48.36 48.38 48.12 47.86 49.17 50.32 51.18 52.04 52.90 53.72 53.41 54.21 53.80 54.00 53.85 53.61 54.16 53.81
45.98 46.43 46.91 47.26 47.31 47.60 47.77 47.89 48.93 49.78 50.68 51.63 52.81 53.01 53.29 53.36 53.33 52.81 53.07 52.86 53.02 54.07
45.27 45.74 46.01 46.52 47.24 47.39 47.53 48.01 48.84 49.21 49.89 50.95 52.38 52.36 52.48 52.68 51.57 52.01 51.71 52.41 52.13 52.63
44.82 45.14 45.36 45.93 46.66 47.13 47.28 47.98 48.81 48.85 49.25 50.60 52.04 52.74 51.98 51.33 51.11 50.42 51.28 52.05 52.52 50.78
43.90 44.36 45.15 45.59 46.16 46.52 46.83 47.61 48.37 48.58 48.69 50.16 51.55 52.66 52.33 51.73 51.01 51.40 51.37 51.05 52.03 49.90
43.29 44.02 44.76 45.42 45.61 46.12 46.56 47.06 47.94 48.47 48.58 49.42 50.27 52.29 52.25 51.51 51.34 51.30 51.35 50.60 51.18 51.12
43.75 43.95 44.33 44.62 45.23 45.76 45.90 46.58 47.79 47.85 48.30 48.75 49.40 51.13 52.14 51.31 51.09 51.14 50.74 50.59 51.14 49.90
42.71 42.73 43.28 43.93 44.30 44.62 45.19 46.11 47.39 48.00 48.09 47.91 47.72 44.14 44.14 48.58 51.18 50.84 50.05 49.26 49.40 48.49
41.90 41.92 42.57 43.09 43.20 43.44 44.26 45.87 46.75 47.77 47.91 47.60 48.29 43.11 43.19 41.82 50.03 50.93 50.39 49.30 48.47 45.73
40.80 40.90 41.43 41.44 42.41 43.14 44.23 45.19 46.46 47.22 47.59 47.45 47.32 42.38 42.36 40.19 50.23 51.11 50.32 49.05 48.59 47.00
40.79 40.36 40.60 40.76 41.70 43.05 43.76 44.73 45.92 46.54 47.02 46.33 47.25 41.23 40.84 41.77 47.20 47.87 48.45 47.65 48.20 47.23
40.51 40.48 40.35 41.08 41.14 41.98 43.66 43.13 41.18 43.24 44.24 39.48 45.37 40.37 40.35 41.58 45.01 44.99 43.49 44.92 45.01 37.02
39.25 39.55 40.61 40.38 39.09 40.34 40.66 39.51 39.52 38.29 38.82 39.99 39.82 42.71 40.28 40.12 44.91 44.06 39.46 38.68 37.36 38.07
MSLP
1018.36 1018.34 1018.51 1018.64 1018.84 1018.90 1019.03 1019.26 1019.39 1019.37 1019.29 1019.12 1018.80 1018.64 1018.36 1018.42 1018.46 1018.51 1018.44 1018.51 1018.32 1018.45
1018.24 1018.41 1018.43 1018.64 1018.88 1018.98 1019.18 1019.31 1019.36 1019.37 1019.23 1019.08 1018.84 1018.68 1018.50 1018.67 1018.60 1018.67 1018.87 1018.98 1019.12 1018.87
1018.02 1018.30 1018.40 1018.69 1018.80 1018.87 1019.16 1019.32 1019.27 1019.38 1019.27 1019.12 1018.93 1018.82 1018.67 1018.75 1018.85 1018.86 1018.91 1019.37 1019.41 1019.61
1017.90 1018.15 1018.37 1018.57 1018.84 1018.90 1019.13 1019.24 1019.26 1019.35 1019.29 1019.20 1018.99 1018.91 1018.84 1018.81 1019.07 1018.94 1019.21 1019.29 1019.65 1020.00
1017.68 1018.02 1018.17 1018.34 1018.64 1018.87 1018.93 1019.31 1019.30 1019.35 1019.38 1019.31 1019.18 1018.98 1018.90 1018.99 1019.12 1019.29 1019.25 1019.52 1019.69 1020.22
1017.46 1017.75 1017.88 1018.06 1018.46 1018.79 1018.84 1019.17 1019.36 1019.33 1019.41 1019.33 1019.35 1019.17 1019.13 1019.09 1019.25 1019.44 1019.61 1019.87 1019.93 1020.41
1017.17 1017.36 1017.60 1017.92 1018.30 1018.55 1018.68 1018.89 1019.22 1019.27 1019.44 1019.51 1019.45 1019.41 1019.34 1019.34 1019.41 1019.52 1019.73 1020.09 1020.41 1020.68
1016.77 1017.13 1017.44 1017.78 1018.07 1018.48 1018.62 1018.76 1019.06 1019.25 1019.39 1019.49 1019.50 1019.54 1019.60 1019.54 1019.54 1019.73 1019.96 1020.27 1020.64 1021.13
1016.46 1016.97 1017.36 1017.70 1018.02 1018.44 1018.54 1018.82 1018.92 1019.11 1019.30 1019.39 1019.52 1019.59 1019.55 1019.59 1019.64 1019.73 1019.98 1020.37 1020.75 1021.39
1016.20 1016.75 1017.14 1017.61 1017.91 1018.23 1018.35 1018.66 1018.73 1018.83 1019.00 1019.18 1019.39 1019.63 1019.69 1019.67 1019.56 1019.68 1019.80 1020.10 1020.67 1021.26
1016.12 1016.57 1017.09 1017.49 1017.67 1017.97 1018.17 1018.35 1018.50 1018.66 1018.85 1018.94 1019.22 1019.41 1019.58 1019.49 1019.64 1019.46 1019.67 1019.92 1020.35 1020.97
1015.77 1016.25 1016.84 1017.07 1017.34 1017.59 1017.91 1018.17 1018.39 1018.56 1018.74 1019.05 1019.13 1019.27 1019.33 1019.42 1019.48 1019.62 1019.72 1019.86 1020.13 1020.66
1015.76 1016.19 1016.67 1017.03 1017.47 1017.86 1018.00 1018.27 1018.68 1018.67 1018.79 1019.07 1019.24 1019.35 1019.40 1019.15 1019.40 1019.44 1019.67 1019.89 1020.08 1020.26
1016.04 1016.40 1016.61 1017.05 1017.69 1017.93 1018.24 1018.63 1018.80 1018.85 1018.99 1019.17 1019.21 1019.33 1019.48 1019.48 1018.85 1019.11 1019.55 1019.87 1019.92 1020.03
Wind_Speed
6 5 4 5 4 4 3 3 2 2 2 3 3 3 1 1 2 3 2 2 4 5
7 7 6 6 5 4 4 3 3 2 1 2 3 3 1 2 3 4 4 4 3 7
8 7 6 5 6 5 4 4 4 2 1 1 2 3 2 3 2 4 6 3 4 7
7 7 6 6 5 5 5 5 4 3 2 1 2 2 3 4 2 4 6 8 4 7
8 7 7 7 6 5 5 4 4 4 3 3 2 3 3 4 4 4 5 8 10 8
9 9 8 8 7 6 5 5 5 4 4 4 3 4 3 4 4 4 5 5 7 8
10 10 9 8 7 7 7 6 5 4 4 4 3 3 4 4 4 4 5 5 5 7
10 9 8 8 8 7 6 5 5 4 4 4 3 2 5 5 5 4 5 5 6 5
9 9 8 8 7 7 6 5 6 6 5 4 2 3 4 5 5 6 6 6 5 5
9 9 9 7 7 7 7 6 6 6 6 5 4 5 5 8 4 6 7 7 7 4
10 9 8 8 8 7 7 7 6 6 6 5 4 5 5 6 7 7 7 7 8 8
10 10 9 10 9 8 7 6 6 4 4 4 5 6 6 5 5 5 6 5 8 8
8 9 9 7 7 4 4 3 2 2 1 1 4 4 6 7 3 5 4 4 5 9
6 6 7 7 4 5 5 4 4 3 3 4 3 3 3 8 6 6 4 4 4 4
Wind_Direction
183 187 187 176 165 163 159 146 142 301 14 347 24 24 58 47 45 64 72 52 94 102
186 191 186 173 176 159 160 155 160 248 335 4 36 58 90 77 88 92 77 82 120 117
186 191 182 179 186 169 162 173 163 203 206 68 68 71 83 101 76 110 104 89 120 126
184 187 182 187 187 180 169 178 171 181 197 182 132 104 113 107 93 109 118 123 132 115
181 183 189 191 184 185 177 180 175 182 207 208 170 149 155 135 127 118 131 135 133 121
186 189 196 191 184 186 181 181 181 187 201 209 194 175 173 157 147 143 136 145 145 139
192 194 194 190 190 188 187 181 187 191 193 219 216 191 175 171 163 161 159 151 157 162
193 191 189 188 190 195 187 189 180 178 196 206 235 215 189 184 172 180 179 173 170 156
184 183 189 189 187 195 190 186 182 182 193 208 216 238 221 200 187 183 188 187 181 156
181 182 184 184 183 191 194 192 193 190 189 204 223 239 248 220 194 198 193 182 178 160
180 177 171 172 184 187 193 202 203 197 197 190 217 236 232 221 219 206 197 183 178 179
181 173 175 179 185 186 186 190 202 213 198 198 219 206 208 189 207 208 207 185 185 177
169 172 178 176 168 162 178 164 154 192 249 214 242 186 212 183 201 199 200 186 183 183
151 157 165 153 154 152 161 164 185 200 226 236 224 252 277 269 188 191 188 197 197 190